TimeEST,TemperatureF,Dew PointF,Humidity,Sea Level PressureIn,VisibilityMPH,Wind Direction,Wind SpeedMPH,Gust SpeedMPH,PrecipitationIn,Events,Conditions,WindDirDegrees,DateUTC
12:52 AM,18.0,12.9,81,29.98,10.0,Calm,Calm,-,N/A,,Overcast,0,2013-12-18 05:52:00
1:52 AM,18.0,14.0,84,29.97,10.0,Calm,Calm,-,N/A,,Overcast,0,2013-12-18 06:52:00
2:52 AM,19.0,14.0,81,29.99,10.0,Calm,Calm,-,N/A,,Overcast,0,2013-12-18 07:52:00
3:52 AM,17.1,12.9,84,29.98,10.0,NW,3.5,-,N/A,,Overcast,310,2013-12-18 08:52:00
4:52 AM,16.0,12.0,84,29.97,10.0,Calm,Calm,-,N/A,,Mostly Cloudy,0,2013-12-18 09:52:00
5:19 AM,12.2,10.4,92,29.94,10.0,Calm,Calm,-,N/A,,Mostly Cloudy,0,2013-12-18 10:19:00
5:27 AM,15.8,10.4,79,29.94,10.0,Calm,Calm,-,N/A,,Mostly Cloudy,0,2013-12-18 10:27:00
5:34 AM,12.2,8.6,85,29.94,9.0,Calm,Calm,-,N/A,,Scattered Clouds,0,2013-12-18 10:34:00
5:52 AM,10.0,8.1,92,29.99,6.0,Calm,Calm,-,N/A,,Partly Cloudy,0,2013-12-18 10:52:00
6:13 AM,8.6,6.8,92,29.95,10.0,Calm,Calm,-,N/A,,Mostly Cloudy,0,2013-12-18 11:13:00
6:38 AM,8.6,5.0,85,29.95,10.0,Calm,Calm,-,N/A,,Scattered Clouds,0,2013-12-18 11:38:00
6:52 AM,8.1,3.9,83,30.00,10.0,Calm,Calm,-,N/A,,Clear,0,2013-12-18 11:52:00
7:52 AM,10.9,9.0,92,30.01,7.0,Calm,Calm,-,N/A,,Overcast,0,2013-12-18 12:52:00
8:52 AM,14.0,12.0,92,30.02,2.5,Calm,Calm,-,0.00,Snow,Light Snow,0,2013-12-18 13:52:00
9:14 AM,15.8,12.2,86,29.98,1.8,Calm,Calm,-,0.00,Snow,Light Snow,0,2013-12-18 14:14:00
9:25 AM,15.8,12.2,86,29.98,2.5,Calm,Calm,-,0.00,Snow,Light Snow,0,2013-12-18 14:25:00
9:41 AM,17.6,12.2,79,29.97,3.0,Calm,Calm,-,0.00,Snow,Light Snow,0,2013-12-18 14:41:00
9:52 AM,17.1,12.9,84,30.01,7.0,Calm,Calm,-,0.00,,Overcast,0,2013-12-18 14:52:00
10:52 AM,19.9,14.0,78,30.01,8.0,Calm,Calm,-,N/A,,Overcast,0,2013-12-18 15:52:00
11:52 AM,23.0,16.0,74,29.99,7.0,NW,3.5,-,N/A,,Overcast,310,2013-12-18 16:52:00
12:52 PM,24.1,18.0,77,29.99,10.0,West,8.1,-,0.00,,Overcast,280,2013-12-18 17:52:00
1:52 PM,27.0,19.9,75,29.98,6.0,WNW,9.2,-,N/A,,Haze,290,2013-12-18 18:52:00
2:48 PM,28.4,19.4,69,29.95,10.0,West,8.1,-,0.00,,Overcast,280,2013-12-18 19:48:00
2:52 PM,28.9,19.0,67,29.99,10.0,West,9.2,-,0.00,,Overcast,270,2013-12-18 19:52:00
3:07 PM,28.4,19.4,69,29.96,10.0,West,10.4,-,N/A,,Overcast,260,2013-12-18 20:07:00
3:52 PM,28.0,19.0,69,30.00,10.0,WNW,4.6,-,N/A,,Overcast,290,2013-12-18 20:52:00
4:52 PM,27.0,18.0,69,30.01,10.0,West,6.9,-,N/A,,Overcast,260,2013-12-18 21:52:00
5:52 PM,27.0,19.0,72,30.03,10.0,West,10.4,-,N/A,,Overcast,260,2013-12-18 22:52:00
6:52 PM,27.0,18.0,69,30.05,10.0,West,9.2,-,N/A,,Overcast,270,2013-12-18 23:52:00
7:52 PM,28.0,17.1,63,30.05,10.0,West,12.7,-,N/A,,Overcast,260,2013-12-19 00:52:00
8:52 PM,28.0,17.1,63,30.05,10.0,West,13.8,-,N/A,,Mostly Cloudy,260,2013-12-19 01:52:00
9:52 PM,28.9,17.1,61,30.06,10.0,West,16.1,24.2,N/A,,Overcast,260,2013-12-19 02:52:00
10:52 PM,28.9,17.1,61,30.06,10.0,WSW,15.0,-,N/A,,Overcast,250,2013-12-19 03:52:00
11:52 PM,28.9,17.1,61,30.06,10.0,WSW,18.4,-,N/A,,Overcast,250,2013-12-19 04:52:00